Погода в Тикси

Россия / Республика Саха (Якутия)     71°38′20″N   128°52′15″E
темп.,
°C
ветер,
м/с
пор.,
м/с
влажн.,
%
обл.,
%
осадки,
мм/ч
давл.,
гПа
погр.,
м
1 марта, пн
пн100:00−35св12100100 0.0 102682
03:00−35ссв22100100 0.1 102689
06:00−35с22100100 0.0 102689
09:00−35с23100100 0.1 102690
12:00−34с23100100 0.0 1025125
15:00−34с22100100 0.1 1025109
18:00−35ссз22100100 0.0 102694
21:00−35сз11100100 0.1 102686
2 марта, вт
вт200:00−36зсз12100100 0.0 102691
03:00−36з22100100 0.1 102688
06:00−37з1110077 0.0 102780
09:00−37зсз119672 0.0 102783
12:00−35зсз008727 0.0 102899
15:00−35юв019235 0.0 102799
18:00−37вюв0110070 0.0 102985
21:00−36юв1110084 0.0 102986
3 марта, ср
ср300:00−37вюв11100100 0.0 102988
03:00−36в11100100 0.1 102987
06:00−37всв1194100 0.0 102887
09:00−36ссв1192100 0.1 102888
12:00−34ссв12100100 0.0 102793
15:00−34с22100100 0.1 102690
18:00−34ссз33100100 0.0 102688
21:00−33с45100100 0.1 102692
4 марта, чт
чт400:00−33с45100100 0.1 1025120
03:00−31с46100100 0.1 1025164
06:00−30с46100100 0.1 1024175
09:00−29с57100100 0.2 1024230
12:00−28с57100100 0.1 1024312
15:00−29ссз4799100 0.1 1024258
18:00−31сз3599100 0.1 1026114
21:00−33зсз239975 0.1 102697
5 марта, пт
пт500:00−34зсз339910 0.0 1026103
03:00−34з231006 0.0 1027112
06:00−35з2310028 0.0 1027111
09:00−34з2210048 0.0 1028115
12:00−32з2399100 0.0 1028125
15:00−32з229999 0.0 1028118
18:00−33з239999 0.0 102998
21:00−34з229987 0.0 102969